This is the latest recevied weather packets stored in our database for station/object KQ4PPF. If no packets are shown the sender has not sent any weather packets the latest 10 day(s).
| Time | Temp. | Humidity | Pressure | Rain* | Wind** | Luminosity | Snow |
|---|---|---|---|---|---|---|---|
| 1777364697 | 15° C | 95% | 1015.9 hPa | 0 mm | - | 0 W/m² | - |
| 1777364392 | 15° C | 94% | 1016.1 hPa | 0 mm | - | 0 W/m² | - |
| 1777364089 | 15° C | 92% | 1016.1 hPa | 0 mm | - | 0 W/m² | - |
| 1777363785 | 15.56° C | 88% | 1016.2 hPa | 0 mm | - | 0 W/m² | - |
| 1777363482 | 18.33° C | 78% | 1016.6 hPa | 0 mm | - | 0 W/m² | - |
| 1777363179 | 18.89° C | 66% | 1016.9 hPa | 0 mm | - | 0 W/m² | - |
| 1777362875 | 18.89° C | 66% | 1016.1 hPa | 0 mm | - | 0 W/m² | - |
| 1777362574 | 18.89° C | 65% | 1014.9 hPa | 0 mm | - | 0 W/m² | - |
| 1777362271 | 18.89° C | 64% | 1015.3 hPa | 0 mm | - | 0 W/m² | - |
| 1777361968 | 18.89° C | 65% | 1015.7 hPa | 0 mm | - | 0 W/m² | - |
| 1777361666 | 18.89° C | 64% | 1015.8 hPa | 0 mm | - | 0 W/m² | - |
| 1777361362 | 18.89° C | 64% | 1015.9 hPa | 0 mm | - | 0 W/m² | - |
| 1777361060 | 18.89° C | 64% | 1015.9 hPa | 0 mm | - | 0 W/m² | - |
| 1777360757 | 18.89° C | 65% | 1015.8 hPa | 0 mm | - | 0 W/m² | - |
| 1777360455 | 18.89° C | 64% | 1015.9 hPa | 0 mm | - | 0 W/m² | - |
| 1777360151 | 18.89° C | 65% | 1015.7 hPa | 0 mm | - | 0 W/m² | - |
| 1777359848 | 18.89° C | 65% | 1016 hPa | 0 mm | - | 0 W/m² | - |
| 1777359545 | 18.89° C | 65% | 1016.2 hPa | 0 mm | - | 0 W/m² | - |
| 1777359241 | 18.89° C | 66% | 1016.3 hPa | 0 mm | - | 0 W/m² | - |
| 1777358939 | 18.89° C | 66% | 1016.2 hPa | 0 mm | - | 0 W/m² | - |
| 1777358637 | 18.89° C | 67% | 1016.1 hPa | 0 mm | - | 0 W/m² | - |
| 1777358334 | 18.89° C | 67% | 1016.3 hPa | 0 mm | - | 0 W/m² | - |
| 1777358031 | 18.89° C | 66% | 1017 hPa | 0 mm | - | 0 W/m² | - |
| 1777357729 | 18.89° C | 66% | 1016.7 hPa | 0 mm | - | 0 W/m² | - |
| 1777357425 | 18.89° C | 66% | 1016.4 hPa | 0 mm | - | 0 W/m² | - |
* Rain latest hour (hover to see other rain measurements)
** Current wind speed in m/s (hover to see current wind gust speed)